Hettinger, ND

12:55 AM MST on February 27, 2017 (GMT -0700)
Hettinger Municipal

Weather History for KHEI - November, 2011

Change the Weather History Date:

Friday, November 4, 2011

  Actual Average Record
Temperature  
Mean Temperature 42 °F -  
Max Temperature 60 °F 47 °F 73 °F (2001)
Min Temperature 24 °F 23 °F 17 °F (2003)
Degree Days  
Heating Degree Days 23 30  
Month to date heating degree days 117 118  
Since 1 July heating degree days 913 1173  
Moisture  
Dew Point 22 °F    
Average Humidity 51    
Maximum Humidity 81    
Minimum Humidity 24    
Precipitation  
Precipitation 0.00 in 0.04 in 0.01 in (2012)
Month to date precipitation 0.00 0.16  
Year to date precipitation 15.64 15.35  
Sea Level Pressure  
Sea Level Pressure 29.69 in    
Wind  
Wind Speed 6 mph (SE)    
Max Wind Speed 13 mph    
Max Gust Speed 15 mph    
Visibility 10 miles    
Events      
T = Trace of Precipitation, MM = Missing Value Source: NWS Daily Summary

Daily Weather History Graph

Daily Weather History Graph

Search for Another Location

Airport or City:

Trip Planner

Search our weather history database for the weather conditions in past years. The results will help you decide how hot, cold, wet, or windy it might be!

Date:

Astronomy

Nov. 04, 2011 Rise Set
Actual Time 7:35 AM MDT 5:32 PM MDT
Civil Twilight 7:03 AM MDT 6:04 PM MDT
Nautical Twilight 6:28 AM MDT 6:39 PM MDT
Astronomical Twilight 5:53 AM MDT 7:14 PM MDT
Moon 2:40 PM MDT (11/4) 1:31 AM MDT (11/4)
Length of Visible Light 11h 00m
Length of Day
9h 57m
Waxing Gibbous, 70% of the Moon is Illuminated
Nov 4
Waxing Gibbous
Nov 10
Full
Nov 18
Last Quarter
Nov 24
New
Dec 2
First Quarter

Hourly Weather History & Observations

Time (MDT) Temp. Windchill Dew Point Humidity Pressure Visibility Wind Dir Wind Speed Gust Speed Precip Events Conditions
12:53 AM 34.0 °F 26.6 °F 15.1 °F 46% 29.79 in 10.0 mi SSE 9.2 mph - N/A   Clear
2:53 AM 30.0 °F 24.1 °F 17.1 °F 59% 29.77 in 10.0 mi SSE 5.8 mph - N/A   Clear
3:53 AM 28.9 °F 25.2 °F 18.0 °F 64% 29.77 in 10.0 mi SE 3.5 mph - N/A   Clear
4:53 AM 25.0 °F 20.7 °F 17.1 °F 72% 29.78 in 10.0 mi East 3.5 mph - N/A   Clear
5:53 AM 27.0 °F 20.5 °F 19.0 °F 72% 29.78 in 10.0 mi SSE 5.8 mph - N/A   Clear
6:53 AM 26.1 °F 21.9 °F 18.0 °F 71% 29.77 in 10.0 mi SE 3.5 mph - N/A   Clear
7:53 AM 25.0 °F - 19.0 °F 78% 29.77 in 10.0 mi Calm Calm - N/A   Clear
8:53 AM 30.0 °F 25.2 °F 21.0 °F 69% 29.76 in 10.0 mi SE 4.6 mph - N/A   Clear
9:53 AM 36.0 °F 31.1 °F 24.1 °F 62% 29.75 in 10.0 mi SSE 5.8 mph - N/A   Clear
10:53 AM 43.0 °F 38.8 °F 24.1 °F 47% 29.74 in 10.0 mi SSE 6.9 mph - N/A   Clear
11:53 AM 48.9 °F - 23.0 °F 36% 29.71 in 10.0 mi SSE 5.8 mph - N/A   Clear
12:53 PM 54.0 °F - 23.0 °F 30% 29.68 in 10.0 mi South 9.2 mph - N/A   Clear
1:53 PM 57.0 °F - 23.0 °F 27% 29.65 in 10.0 mi South 9.2 mph - N/A   Clear
2:53 PM 57.9 °F - 24.1 °F 27% 29.65 in 10.0 mi SSE 11.5 mph - N/A   Clear
3:53 PM 59.0 °F - 23.0 °F 25% 29.63 in 10.0 mi SE 9.2 mph - N/A   Clear
4:53 PM 55.0 °F - 24.1 °F 30% 29.64 in 10.0 mi SE 9.2 mph - N/A   Clear
6:53 PM 48.0 °F - 24.1 °F 39% 29.63 in 10.0 mi ESE 10.4 mph - N/A   Clear
7:53 PM 45.0 °F 40.6 °F 24.1 °F 44% 29.63 in 10.0 mi SE 8.1 mph - N/A   Clear
8:53 PM 43.0 °F 38.8 °F 25.0 °F 49% 29.61 in 10.0 mi SE 6.9 mph - N/A   Clear
9:53 PM 39.9 °F 37.8 °F 25.0 °F 55% 29.60 in 10.0 mi East 3.5 mph - N/A   Clear
10:53 PM 39.0 °F 35.7 °F 25.0 °F 57% 29.57 in 10.0 mi ESE 4.6 mph - N/A   Clear
11:53 PM 39.9 °F 36.7 °F 26.1 °F 58% 29.55 in 10.0 mi SE 4.6 mph - N/A   Clear